GW1482 Weather Reports


time (UTC)temp
C
wind
direction
speed
KPH
gust
KPH
rain 1hr
cm
rain 24hr
cm
rain mn
cm
humidity
%
barometer
mb
20260510093327 12 24 1.6 3.2 0.00 0.00 0.00 80 1000.0
20260510092725 12 43 1.6 1.6 0.00 0.00 0.00 82 1000.0
20260510092129 12 49 1.6 3.2 0.00 0.00 0.00 83 999.6
20260510091537 12 46 0.0 0.0 0.00 0.00 0.00 83 1000.0
20260510090909 12 34 0.0 1.6 0.00 0.00 0.00 83 999.6
20260510090341 12 37 0.0 1.6 0.00 0.00 0.00 84 999.6
20260510085716 12 47 1.6 1.6 0.00 0.00 0.00 84 999.6
20260510083948 12 49 0.0 1.6 0.00 0.00 0.00 84 999.6
20260510083352 12 49 0.0 0.0 0.00 0.00 0.00 84 999.6
20260510082744 12 53 1.6 1.6 0.00 0.00 0.00 85 999.6
20260510082119 12 52 0.0 0.0 0.00 0.00 0.00 85 999.3
20260510081549 12 51 1.6 1.6 0.00 0.00 0.00 84 999.3
20260510080918 12 51 1.6 1.6 0.00 0.00 0.00 85 999.3
20260510080327 12 50 0.0 0.0 0.00 0.00 0.00 85 999.3
20260510075750 12 50 0.0 0.0 0.00 0.00 0.00 85 998.9
20260510074542 11 61 1.6 3.2 0.00 0.00 0.00 87 999.3
20260510073942 11 48 1.6 1.6 0.00 0.00 0.00 87 999.3
20260510073347 11 58 1.6 3.2 0.00 0.00 0.00 87 998.9
20260510072734 11 51 1.6 1.6 0.00 0.00 0.00 87 999.3
20260510072126 11 49 1.6 1.6 0.00 0.00 0.00 87 998.9
20260510071546 11 53 1.6 1.6 0.00 0.00 0.00 87 999.3
20260510070925 12 63 1.6 1.6 0.00 0.00 0.00 86 999.3
20260510070312 12 46 1.6 1.6 0.00 0.00 0.00 86 999.3
20260510065734 12 50 1.6 1.6 0.00 0.00 0.00 86 998.9
20260510065141 12 51 1.6 1.6 0.00 0.00 0.00 86 999.3
20260510063923 12 49 1.6 1.6 0.00 0.00 0.00 85 999.3
20260510063330 12 49 1.6 1.6 0.00 0.00 0.00 85 999.3
20260510062709 12 43 1.6 1.6 0.00 0.00 0.00 85 999.3
20260510062146 12 50 1.6 1.6 0.00 0.00 0.00 84 999.3
20260510061534 12 49 1.6 1.6 0.00 0.00 0.00 85 999.3
20260510060949 12 48 1.6 1.6 0.00 0.00 0.00 84 999.3
20260510060341 12 19 1.6 1.6 0.00 0.00 0.00 83 999.3
20260510055725 12 58 1.6 1.6 0.00 0.00 0.00 84 999.3
20260510055118 12 53 1.6 1.6 0.00 0.00 0.00 84 999.3
20260510054538 12 46 1.6 1.6 0.00 0.00 0.00 83 998.9
20260510053314 12 53 1.6 1.6 0.00 0.00 0.00 83 998.9
20260510052149 12 56 1.6 3.2 0.00 0.00 0.00 82 999.6
20260510051548 12 50 1.6 1.6 0.00 0.00 0.00 82 999.6
20260510050912 12 49 1.6 1.6 0.00 0.00 0.00 83 999.6
20260510050332 12 52 1.6 1.6 0.00 0.00 0.00 83 999.6
20260510045721 12 50 1.6 1.6 0.00 0.00 0.00 83 999.6
20260510045110 12 46 1.6 1.6 0.00 0.00 0.00 83 999.6
20260510043931 12 48 1.6 3.2 0.00 0.00 0.00 81 999.3
20260510043338 12 16 3.2 4.8 0.00 0.00 0.00 79 999.3
20260510042711 12 41 1.6 1.6 0.00 0.00 0.00 81 999.6
20260510042145 12 34 1.6 1.6 0.00 0.00 0.00 79 999.6
20260510041533 12 38 1.6 3.2 0.00 0.00 0.00 82 999.6
20260510040924 12 12 1.6 1.6 0.00 0.00 0.00 81 999.3
20260510040343 12 51 1.6 1.6 0.00 0.00 0.00 82 999.3
20260510035747 12 51 1.6 3.2 0.00 0.00 0.00 82 999.3
20260510035123 12 74 3.2 3.2 0.00 0.00 0.00 83 998.9
20260510034541 12 39 1.6 1.6 0.00 0.00 0.00 83 998.9
20260510033909 12 47 1.6 1.6 0.00 0.00 0.00 83 998.9
20260510033316 12 42 1.6 1.6 0.00 0.00 0.00 82 998.9
20260510032752 12 44 0.0 0.0 0.00 0.00 0.00 82 998.9
20260510032147 12 48 0.0 1.6 0.00 0.00 0.00 81 998.9
20260510031524 12 38 1.6 1.6 0.00 0.00 0.00 81 998.9
20260510030919 12 41 1.6 1.6 0.00 0.00 0.00 81 998.9
20260510030328 12 41 1.6 1.6 0.00 0.00 0.00 80 998.6
20260510025732 12 40 1.6 1.6 0.00 0.00 0.00 80 998.9
20260510025123 12 55 1.6 1.6 0.00 0.00 0.00 80 998.6
20260510023940 12 61 1.6 1.6 0.00 0.00 0.00 79 998.9
20260510022739 12 46 1.6 1.6 0.00 0.00 0.00 80 998.9
20260510021510 12 65 3.2 3.2 0.00 0.00 0.00 80 998.6
20260510020952 12 53 1.6 1.6 0.00 0.00 0.00 80 998.6
20260510015740 12 43 0.0 1.6 0.00 0.00 0.00 79 998.6
20260510015143 13 26 0.0 0.0 0.00 0.00 0.00 79 998.6
20260510014511 13 53 1.6 1.6 0.00 0.00 0.00 76 998.3
20260510013946 13 51 1.6 1.6 0.00 0.00 0.00 75 998.3
20260510012725 13 36 0.0 0.0 0.00 0.00 0.00 74 997.9
20260510012131 13 52 1.6 1.6 0.00 0.00 0.00 75 997.6
20260510011556 13 52 0.0 0.0 0.00 0.00 0.00 75 997.9
20260510010951 13 56 1.6 1.6 0.00 0.00 0.00 75 997.6
20260510010348 13 49 1.6 1.6 0.00 0.00 0.00 74 997.6
20260510005143 13 25 1.6 1.6 0.00 0.00 0.00 71 997.6
20260510004550 13 34 0.0 1.6 0.00 0.00 0.00 72 997.6
20260510003307 13 48 1.6 1.6 0.00 0.00 0.00 72 997.2
20260510002716 14 50 1.6 1.6 0.00 0.00 0.00 72 997.2
20260510001511 14 46 0.0 1.6 0.00 0.00 0.00 72 997.2
20260510000943 14 34 0.0 1.6 0.00 0.00 0.00 68 997.2
20260510000349 14 35 0.0 0.0 0.00 0.00 0.00 71 997.2
20260509235710 15 33 1.6 1.6 0.00 0.00 0.00 69 996.9
20260509235126 15 33 0.0 1.6 0.00 0.00 0.00 68 996.9
20260509234543 15 33 0.0 0.0 0.00 0.00 0.00 68 996.9
20260509233949 15 18 0.0 0.0 0.00 0.00 0.00 65 996.9
20260509233339 16 20 0.0 0.0 0.00 0.00 0.00 64 996.9
20260509232130 16 20 0.0 0.0 0.00 0.00 0.00 62 996.6
20260509231509 16 30 0.0 0.0 0.00 0.00 0.00 63 996.6
20260509230951 16 343 4.8 4.8 0.00 0.00 0.00 61 996.9
20260509230332 16 126 3.2 4.8 0.00 0.00 0.00 61 996.9
20260509225146 16 309 3.2 3.2 0.00 0.00 0.00 60 996.6
20260509224535 16 348 1.6 3.2 0.00 0.00 0.00 59 996.9
20260509223928 16 90 1.6 3.2 0.00 0.00 0.00 59 997.2
20260509223343 16 0 1.6 3.2 0.00 0.00 0.00 60 997.2
20260509222130 16 8 0.0 1.6 0.00 0.00 0.00 57 997.2
20260509220918 17 354 1.6 1.6 0.00 0.00 0.00 56 996.9
20260509220325 17 355 1.6 1.6 0.00 0.00 0.00 57 996.9
20260509215723 17 349 0.0 0.0 0.00 0.00 0.00 53 996.9
20260509215134 17 319 3.2 4.8 0.00 0.00 0.00 56 996.9
20260509214520 17 263 4.8 6.4 0.00 0.00 0.00 55 996.9
20260509213335 17 358 0.0 1.6 0.00 0.00 0.00 55 996.9
20260509212739 16 303 1.6 3.2 0.00 0.00 0.00 57 997.2
20260509212145 16 88 3.2 3.2 0.00 0.00 0.00 57 996.6
20260509211542 16 5 0.0 1.6 0.00 0.00 0.00 56 996.9
20260509210931 16 32 0.0 0.0 0.00 0.00 0.00 61 996.9
20260509210318 16 36 1.6 1.6 0.00 0.00 0.00 59 996.9
20260509205747 17 192 3.2 3.2 0.00 0.00 0.00 57 996.9
20260509205134 17 28 0.0 1.6 0.00 0.00 0.00 58 996.6
20260509204537 17 348 1.6 1.6 0.00 0.00 0.00 60 996.6
20260509203950 17 55 1.6 1.6 0.00 0.00 0.00 56 996.6
20260509203321 17 32 0.0 0.0 0.00 0.00 0.00 57 996.2
20260509202753 17 16 0.0 0.0 0.00 0.00 0.00 57 996.2
20260509202126 17 27 0.0 0.0 0.00 0.00 0.00 54 996.2
20260509201532 17 20 1.6 1.6 0.00 0.00 0.00 56 996.2
20260509200939 18 328 3.2 4.8 0.00 0.00 0.00 53 996.2
20260509200309 17 359 1.6 1.6 0.00 0.00 0.00 57 996.2
20260509195125 17 40 1.6 1.6 0.00 0.00 0.00 53 996.2
20260509193915 17 299 4.8 6.4 0.00 0.00 0.00 51 996.2
20260509193337 17 21 0.0 1.6 0.00 0.00 0.00 53 996.6
20260509192748 17 24 0.0 1.6 0.00 0.00 0.00 51 996.2
20260509191528 18 316 3.2 4.8 0.00 0.00 0.00 50 996.2
20260509190313 19 336 3.2 3.2 0.00 0.00 0.00 48 996.2
20260509185750 20 265 4.8 4.8 0.00 0.00 0.00 47 996.2
20260509185114 19 269 6.4 9.7 0.00 0.00 0.00 50 996.2
20260509184531 18 304 1.6 3.2 0.00 0.00 0.00 53 996.2
20260509183936 17 5 0.0 0.0 0.00 0.00 0.00 55 996.2
20260509183343 18 295 8.0 9.7 0.00 0.00 0.00 55 996.2
20260509182727 18 14 3.2 3.2 0.00 0.00 0.00 53 996.2
20260509182153 18 13 1.6 3.2 0.00 0.00 0.00 55 996.2
20260509181515 18 320 3.2 6.4 0.00 0.00 0.00 52 996.2
20260509180942 18 336 9.7 11.3 0.00 0.00 0.00 53 996.2
20260509180315 18 333 3.2 6.4 0.00 0.00 0.00 56 996.2
20260509175737 17 324 6.4 9.7 0.00 0.00 0.00 56 996.2
20260509175152 16 352 3.2 3.2 0.00 0.00 0.00 58 996.6
20260509174526 17 292 6.4 9.7 0.00 0.00 0.00 56 996.6
20260509173310 17 2 1.6 1.6 0.00 0.00 0.00 57 996.6
20260509172726 16 304 11.3 14.5 0.00 0.00 0.00 59 996.6
20260509171510 17 266 4.8 4.8 0.00 0.00 0.00 62 996.6
20260509170921 16 347 6.4 9.7 0.00 0.00 0.00 62 996.9
20260509170323 16 322 4.8 4.8 0.00 0.00 0.00 63 996.9
20260509165719 15 11 1.6 1.6 0.00 0.00 0.00 68 996.9
20260509165132 15 10 1.6 3.2 0.00 0.00 0.00 67 996.9
20260509164539 15 14 0.0 1.6 0.00 0.00 0.00 68 996.9
20260509163934 14 14 0.0 0.0 0.00 0.00 0.00 70 997.2
20260509162115 14 39 1.6 1.6 0.00 0.00 0.00 69 996.9
20260509161540 14 338 1.6 3.2 0.00 0.00 0.00 70 997.2
20260509160930 14 300 0.0 1.6 0.00 0.00 0.00 68 997.2
20260509160345 14 18 1.6 3.2 0.00 0.00 0.00 68 996.9
20260509155716 13 17 1.6 1.6 0.00 0.00 0.00 69 997.2
20260509154540 14 345 0.0 1.6 0.00 0.00 0.00 68 997.2
20260509153940 14 32 0.0 1.6 0.00 0.00 0.00 70 997.2
20260509153324 13 23 1.6 1.6 0.00 0.00 0.00 68 996.9
20260509152128 13 28 0.0 0.0 0.00 0.00 0.00 67 997.2
20260509150915 14 20 0.0 0.0 0.00 0.00 0.00 69 996.9
20260509150315 14 344 1.6 3.2 0.00 0.00 0.00 68 996.9
20260509145740 14 184 3.2 4.8 0.00 0.00 0.00 67 996.9
20260509145127 14 323 1.6 1.6 0.00 0.00 0.00 68 997.2
20260509144508 14 16 0.0 0.0 0.00 0.00 0.00 68 997.2
20260509143907 14 354 1.6 1.6 0.00 0.00 0.00 67 996.9
20260509142747 14 331 4.8 4.8 0.00 0.00 0.00 63 996.9
20260509141517 14 27 0.0 0.0 0.00 0.00 0.00 63 996.6
20260509140924 14 40 0.0 0.0 0.00 0.00 0.00 64 996.6
20260509140344 14 30 0.0 0.0 0.00 0.00 0.00 64 996.6
20260509135710 13 359 1.6 1.6 0.00 0.00 0.00 64 996.6
20260509135112 13 25 0.0 0.0 0.00 0.00 0.00 65 996.6
20260509134545 13 324 1.6 3.2 0.00 0.00 0.00 63 996.6
20260509133914 13 44 1.6 1.6 0.00 0.00 0.00 63 996.6
20260509132743 13 35 1.6 1.6 0.00 0.00 0.00 65 996.2
20260509132132 13 118 3.2 4.8 0.00 0.00 0.00 64 996.6
20260509131511 13 9 0.0 1.6 0.00 0.00 0.00 64 996.6
20260509130917 13 86 3.2 4.8 0.00 0.00 0.00 64 996.9
20260509130311 13 346 1.6 1.6 0.00 0.00 0.00 63 996.6
20260509125721 13 46 1.6 1.6 0.00 0.00 0.00 64 996.9
20260509125123 12 37 0.0 0.0 0.00 0.00 0.00 68 997.2
20260509123935 12 36 1.6 1.6 0.00 0.00 0.00 65 997.2
20260509123351 12 22 3.2 4.8 0.00 0.00 0.00 64 997.2
20260509122746 12 34 4.8 6.4 0.00 0.00 0.00 65 997.2
20260509122142 12 31 0.0 1.6 0.00 0.00 0.00 65 997.2
20260509121510 12 24 0.0 0.0 0.00 0.00 0.00 65 997.2
20260509120914 12 40 0.0 1.6 0.00 0.00 0.00 68 997.2
20260509120320 12 69 3.2 3.2 0.00 0.00 0.00 69 997.2
20260509115739 12 34 1.6 1.6 0.00 0.00 0.00 67 997.2
20260509115121 12 30 0.0 1.6 0.00 0.00 0.00 65 997.2
20260509113926 11 43 1.6 1.6 0.00 0.00 0.00 67 997.2
20260509113325 11 30 0.0 0.0 0.00 0.00 0.00 67 997.2
20260509112131 11 30 0.0 0.0 0.00 0.00 0.00 65 996.9
20260509110934 11 32 1.6 1.6 0.00 0.00 0.00 65 997.2
20260509110313 11 38 1.6 1.6 0.00 0.00 0.00 66 997.2
20260509104545 12 38 0.0 0.0 0.00 0.00 0.00 65 996.9
20260509103940 12 44 1.6 1.6 0.00 0.00 0.00 64 997.2
20260509103314 12 13 1.6 1.6 0.00 0.00 0.00 62 996.9
20260509102735 11 29 1.6 1.6 0.00 0.00 0.00 65 996.9
20260509102123 11 36 0.0 1.6 0.00 0.00 0.00 63 996.9
20260509101514 11 39 1.6 1.6 0.00 0.00 0.00 66 996.9
20260509100920 11 48 0.0 0.0 0.00 0.00 0.00 65 996.9
20260509100325 11 43 0.0 0.0 0.00 0.00 0.00 64 996.6
20260509095736 11 40 1.6 1.6 0.00 0.00 0.00 64 996.9
20260509095147 11 46 0.0 0.0 0.00 0.00 0.00 65 996.9
20260509094533 11 21 0.0 0.0 0.00 0.00 0.00 65 996.9